Location: Central Falls
(41.8900°N, 71.3929°W)
Time: 02:30:48
(UTC+00:00)

Vanguard 2 - Pass Details

Date: 11 December 2023
Orbit: 554 x 2918 km, 32.9° (Epoch: 01 March)

Event Time Altitude Azimuth Distance (km) Brightness Sun altitude
Rises 03:05:47 0° 266° (W) 6,755 12.6 -62.9°
Reaches altitude 10° 03:10:24 10° 263° (W) 5,744 12.1 -63.6°
Enters shadow 03:16:57 27° 255° (WSW) 4,340 11.3 -64.6°
Maximum altitude 03:27:18 58° 191° (S) 2,817 - -65.9°
Drops below altitude 10° 03:39:29 10° 116° (ESE) 4,262 - -67.4°
Sets 03:42:22 0° 112° (ESE) 4,978 - -67.7°
